ELNO2: N. Canadian River, El Reno, OK

Data processed at Thu May 23 2019 23:50


All information presented herein is the property of the government of the United States of America and may be revised or deleted at any time without prior notice.
Dissemination of this information without the expressed written consent of the Public Affairs Office, Tulsa District U.S. Army Corps of Engineers is strictly prohibited.
These data are gathered electronically and, as presented, have not undergone any form of quality control. These data are not guaranteed to be valid or correct.
Go to home page.
Go to station list.
Go to home page.

Upstream stations:

Downstream station:
Previous Day
Next Day
Current Day
    
SHEF ID:       ELNO2     North Canadian River near El Ren
STATION TYPE:  
Regulating: Stage =    10.00, Flow =     2510

               PRECIP     STAGE  STAGE(2)  RIV-FLOW  WTR-TEMP   CONDUCT  BAT-LOAD
                   in        ft        ft       cfs         F   umho/cm      volt
              Ccp-Rev   Ccp-Rev   Ccp-Rev   Ccp-Rev   Ccp-Rev   Ccp-Rev   Ccp-Rev
(US/Central)
05/23 00:00      0.00     12.23      ----      3757     67.23       387     12.73
05/23 01:00      0.00     12.14      ----      3694     67.39       388     12.65
05/23 02:00      0.00     12.16      ----      3708     67.55       389     12.65
05/23 03:00      0.00     12.14      ----      3694     67.68       389     12.65
05/23 04:00      0.00     12.05      ----      3872     67.80       391     12.65
05/23 05:00      0.00     11.97      ----      3814     67.95       392     12.65
05/23 06:00      0.00     11.90      ----      3765     68.05       392     12.65
05/23 07:00      0.00     11.90      ----      3765     68.14       393     12.57
05/23 08:00      0.00     11.88      ----      3750     68.22       394     12.57
05/23 09:00      0.00     11.87      ----      3743     68.32       394     12.89
05/23 10:00      0.00     11.87      ----      3743     68.50       395     13.29
05/23 11:00      0.00     11.79      ----      3687     68.70       394     13.53
05/23 12:00      0.00     11.74      ----      3652     68.95       394     13.68
05/23 13:00      0.00     11.76      ----      3666     69.10       394     13.68
05/23 14:00      0.00     11.67      ----      3603     69.31       396     13.68
05/23 15:00      0.00     11.59      ----      3547     69.49       395     13.60
05/23 16:00      0.00     11.57      ----      3533     69.84       397     13.68
05/23 17:00      0.00     11.57      ----      3533     70.18       399     13.44
05/23 18:00      0.00     11.55      ----      3520     70.36       398     13.60
05/23 19:00      0.00     11.50      ----      3485     70.47       399     13.44
05/23 20:00      0.00     11.50      ----      3485     70.52       398     13.21
05/23 21:00      0.00     11.44      ----      3444     70.54       399     12.81
05/23 22:00      0.00     11.41      ----      3424     70.56       400     12.73
05/23 23:00      0.00     11.39      ----      3410     70.65       400     12.73